Lancaster, PA

1:18 PM EDT on April 26, 2017 (GMT -0400)
Lancaster

Weather History for KLNS - November, 2012

Change the Weather History Date:

Tuesday, November 13, 2012

  Actual Average Record
Temperature  
Mean Temperature 42 °F -  
Max Temperature 51 °F 52 °F 68 °F (1992)
Min Temperature 34 °F 33 °F 21 °F (1996)
Degree Days  
Heating Degree Days 22    
Moisture  
Dew Point 36 °F    
Average Humidity 78    
Maximum Humidity 93    
Minimum Humidity 46    
Precipitation  
Precipitation 0.78 in - - ()
Sea Level Pressure  
Sea Level Pressure 30.32 in    
Wind  
Wind Speed 14 mph (NW)    
Max Wind Speed 25 mph    
Max Gust Speed 39 mph    
Visibility 7 miles    
Events Rain    
Averages and records for this station are not official NWS values.
T = Trace of Precipitation, MM = Missing Value Source: NWS Daily Summary

Daily Weather History Graph

Daily Weather History Graph

Search for Another Location

Airport or City:

Trip Planner

Search our weather history database for the weather conditions in past years. The results will help you decide how hot, cold, wet, or windy it might be!

Date:

Astronomy

Nov. 13, 2012 Rise Set
Actual Time 6:48 AM EST 4:49 PM EST
Civil Twilight 6:19 AM EST 5:18 PM EST
Nautical Twilight 5:47 AM EST 5:51 PM EST
Astronomical Twilight 5:15 AM EST 6:23 PM EST
Moon 6:24 AM EST (11/13) 4:41 PM EST (11/13)
Length of Visible Light 10h 58m
Length of Day
10h 00m
Waning Crescent, 0% of the Moon is Illuminated
Nov 13
Waning Crescent
Nov 13
New
Nov 20
First Quarter
Nov 28
Full
Dec 6
Last Quarter

Hourly Weather History & Observations

Time (EST) Temp. Windchill Dew Point Humidity Pressure Visibility Wind Dir Wind Speed Gust Speed Precip Events Conditions
12:33 AM 51.8 °F - 48.2 °F 88% 30.18 in 1.8 mi WNW 24.2 mph 39.1 mph 0.15 in Rain Heavy Rain
12:36 AM 50.0 °F - 46.4 °F 87% 30.19 in 1.5 mi WNW 25.3 mph 39.1 mph 0.19 in Rain Heavy Rain
12:46 AM 48.2 °F - 46.4 °F 93% 30.19 in 3.0 mi WNW 19.6 mph 31.1 mph 0.24 in Rain Heavy Rain
12:53 AM 48.9 °F - 46.0 °F 90% 30.19 in 4.0 mi WNW 21.9 mph 26.5 mph 0.26 in Rain Rain
1:23 AM 48.2 °F - 44.6 °F 87% 30.19 in 10.0 mi NW 16.1 mph 25.3 mph 0.02 in Rain Light Rain
1:53 AM 46.9 °F - 44.1 °F 90% 30.22 in 4.0 mi NW 12.7 mph 20.7 mph 0.05 in Rain Rain
2:32 AM 46.4 °F 40.7 °F 42.8 °F 87% 30.24 in 4.0 mi NW 12.7 mph - 0.03 in Rain Rain
2:53 AM 46.0 °F 41.4 °F 43.0 °F 89% 30.24 in 4.0 mi NW 9.2 mph - 0.06 in Rain Rain
3:12 AM 46.4 °F 42.4 °F 44.6 °F 93% 30.24 in 4.0 mi WNW 8.1 mph - 0.03 in Rain Rain
3:23 AM 46.4 °F 41.9 °F 42.8 °F 87% 30.23 in 6.0 mi WNW 9.2 mph - 0.04 in Rain Light Rain
3:38 AM 44.6 °F 39.2 °F 42.8 °F 93% 30.24 in 5.0 mi WNW 10.4 mph - 0.06 in Rain Rain
3:53 AM 45.0 °F 38.9 °F 41.0 °F 86% 30.25 in 4.0 mi WNW 12.7 mph - 0.08 in Rain Light Rain
4:14 AM 44.6 °F 39.2 °F 42.8 °F 93% 30.26 in 2.5 mi NW 10.4 mph - 0.05 in Rain Rain
4:22 AM 44.6 °F 39.7 °F 42.8 °F 93% 30.26 in 4.0 mi NNW 9.2 mph - 0.06 in Rain Light Rain
4:48 AM 42.8 °F 34.5 °F 37.4 °F 81% 30.26 in 8.0 mi NW 18.4 mph 24.2 mph 0.07 in Rain Light Rain
4:53 AM 43.0 °F 35.1 °F 37.0 °F 80% 30.26 in 10.0 mi NNW 17.3 mph 24.2 mph 0.07 in Rain Light Rain
5:53 AM 41.0 °F 34.7 °F 37.0 °F 86% 30.31 in 9.0 mi NW 10.4 mph - 0.02 in Rain Light Rain
6:25 AM 41.0 °F 35.8 °F 37.4 °F 87% 30.32 in 4.0 mi NW 8.1 mph - 0.05 in Rain Rain
6:36 AM 41.0 °F 34.7 °F 37.4 °F 87% 30.31 in 4.0 mi NW 10.4 mph - 0.07 in Rain Rain
6:53 AM 39.9 °F 35.1 °F 37.0 °F 89% 30.33 in 3.0 mi WNW 6.9 mph - 0.14 in Rain Heavy Rain
7:15 AM 39.2 °F 33.0 °F 37.4 °F 93% 30.33 in 6.0 mi NW 9.2 mph - 0.04 in Rain Rain
7:53 AM 39.0 °F 33.4 °F 36.0 °F 89% 30.36 in 6.0 mi NW 8.1 mph - 0.10 in Rain Light Rain
8:07 AM 39.2 °F 33.0 °F 35.6 °F 87% 30.35 in 10.0 mi NW 9.2 mph - 0.00 in Rain Light Rain
8:45 AM 39.2 °F 34.2 °F 35.6 °F 87% 30.36 in 10.0 mi WNW 6.9 mph - 0.00 in Rain Light Rain
8:53 AM 39.9 °F 34.5 °F 37.0 °F 89% 30.37 in 10.0 mi WNW 8.1 mph - 0.00 in Rain Light Rain
9:07 AM 39.2 °F 32.0 °F 35.6 °F 87% 30.38 in 10.0 mi WNW 11.5 mph - 0.00 in Rain Light Rain
9:30 AM 39.2 °F 31.6 °F 33.8 °F 81% 30.37 in 10.0 mi WNW 12.7 mph - 0.00 in   Overcast
9:53 AM 39.9 °F 32.1 °F 33.1 °F 77% 30.39 in 10.0 mi NW 13.8 mph - 0.00 in   Overcast
10:26 AM 42.8 °F 35.4 °F 32.0 °F 66% 30.38 in 10.0 mi NW 15.0 mph - N/A   Mostly Cloudy
10:53 AM 41.0 °F 33.5 °F 30.0 °F 65% 30.39 in 10.0 mi NW 13.8 mph - N/A   Partly Cloudy
11:53 AM 43.0 °F 36.0 °F 30.0 °F 60% 30.36 in 10.0 mi NW 13.8 mph - N/A   Clear
12:53 PM 45.0 °F 39.7 °F 30.0 °F 56% 30.35 in 10.0 mi NW 10.4 mph - N/A   Clear
1:53 PM 46.9 °F - 28.0 °F 48% 30.35 in 10.0 mi NW 13.8 mph - N/A   Clear
2:53 PM 46.9 °F - 27.0 °F 46% 30.35 in 10.0 mi NNW 9.2 mph - N/A   Clear
3:53 PM 46.0 °F 41.9 °F 28.0 °F 50% 30.36 in 10.0 mi NNW 8.1 mph - N/A   Clear
4:53 PM 43.0 °F 38.8 °F 26.1 °F 51% 30.38 in 10.0 mi NNW 6.9 mph - N/A   Clear
5:53 PM 39.0 °F 34.8 °F 27.0 °F 62% 30.40 in 10.0 mi NW 5.8 mph - N/A   Clear
6:53 PM 39.0 °F 34.0 °F 26.1 °F 60% 30.43 in 10.0 mi NW 6.9 mph - N/A   Clear
7:53 PM 37.0 °F 31.6 °F 26.1 °F 65% 30.45 in 10.0 mi NNW 6.9 mph - N/A   Clear
8:53 PM 37.0 °F 32.4 °F 25.0 °F 62% 30.47 in 10.0 mi North 5.8 mph - N/A   Clear
9:53 PM 36.0 °F 31.1 °F 25.0 °F 64% 30.47 in 10.0 mi NNW 5.8 mph - N/A   Clear
10:53 PM 34.0 °F 29.8 °F 26.1 °F 73% 30.48 in 10.0 mi NNW 4.6 mph - N/A   Mostly Cloudy
11:53 PM 37.0 °F 34.5 °F 28.0 °F 70% 30.48 in 10.0 mi North 3.5 mph - N/A   Overcast